VA3XLC Weather Reports


time (UTC)temp
C
wind
direction
speed
KPH
gust
KPH
rain 1hr
cm
rain 24hr
cm
rain mn
cm
humidity
%
barometer
mb
20260901055922 22 272 4.8 8.0 0.00 0.00 0.00 91 982.1
20260901055422 22 262 6.4 8.0 0.00 0.00 0.00 92 982.0
20260901054922 22 247 3.2 4.8 0.00 0.00 0.00 93 982.1
20260901054422 22 250 1.6 4.8 0.00 0.00 0.00 93 982.2
20260901053921 21 264 6.4 9.7 0.00 0.00 0.00 94 982.1
20260901053420 21 265 3.2 4.8 0.00 0.00 0.00 94 982.1
20260901052920 21 152 1.6 3.2 0.00 0.00 0.00 94 982.1
20260901052420 21 0 0.0 0.0 0.00 0.00 0.00 95 982.2
20260901051358 21 188 1.6 3.2 0.00 0.00 0.00 95 982.2
20260901050856 21 262 1.6 3.2 0.00 0.00 0.00 95 982.3
20260901045313 21 127 1.6 3.2 0.00 0.00 0.00 95 982.4
20260901044813 21 249 1.6 3.2 0.00 0.00 0.00 95 982.3
20260901044313 21 0 0.0 0.0 0.00 0.00 0.00 95 982.4
20260901043812 21 279 1.6 3.2 0.00 0.00 0.00 94 982.4
20260901043312 21 248 3.2 6.4 0.00 0.00 0.00 94 982.4
20260901042812 21 164 1.6 3.2 0.00 0.00 0.00 94 982.5
20260901042312 21 148 3.2 4.8 0.00 0.00 0.00 94 982.6
20260901041811 21 247 1.6 3.2 0.00 0.00 0.00 94 982.6
20260901041311 21 149 1.6 3.2 0.00 0.00 0.00 94 982.7
20260901040249 21 244 3.2 4.8 0.00 0.00 0.00 94 982.8
20260901035749 21 0 0.0 0.0 0.00 0.00 0.00 95 982.9
20260901035249 21 276 1.6 3.2 0.00 0.00 0.00 95 982.9
20260901034748 21 140 1.6 1.6 0.00 0.00 0.00 95 983.0
20260901034247 21 193 1.6 1.6 0.00 0.00 0.00 95 983.0
20260901033747 21 0 0.0 0.0 0.00 0.00 0.00 95 983.0
20260901033247 21 224 1.6 3.2 0.00 0.00 0.00 95 983.0
20260901032747 21 0 0.0 0.0 0.00 0.00 0.00 95 982.9
20260901032246 21 164 1.6 3.2 0.00 0.00 0.00 95 982.9
20260901031225 21 235 1.6 4.8 0.00 0.00 0.00 95 982.9
20260901030725 21 228 3.2 4.8 0.00 0.00 0.00 95 982.9
20260901030225 21 45 1.6 3.2 0.00 0.00 0.00 95 982.9
20260901025724 21 348 1.6 3.2 0.00 0.00 0.00 95 982.9
20260901024141 21 85 1.6 4.8 0.00 0.00 0.00 95 982.9
20260901023640 21 64 0.0 1.6 0.00 0.00 0.00 95 983.0
20260901022619 21 0 0.0 0.0 0.00 0.00 0.00 95 983.0
20260901022118 21 146 1.6 3.2 0.00 0.00 0.00 95 983.0
20260901021617 21 132 1.6 3.2 0.00 0.00 0.00 95 983.0
20260901021117 21 0 0.0 0.0 0.00 0.00 0.00 95 983.0
20260901020617 21 151 4.8 4.8 0.00 0.00 0.00 95 983.0
20260901020116 21 141 3.2 4.8 0.00 0.00 0.00 95 983.0
20260901015055 21 149 3.2 6.4 0.00 0.00 0.00 95 983.1
20260901014555 21 132 1.6 1.6 0.00 0.00 0.00 95 983.1
20260901014054 21 154 3.2 4.8 0.00 0.00 0.00 95 983.1
20260901013554 21 170 1.6 3.2 0.00 0.00 0.00 95 983.2
20260901013053 21 145 3.2 3.2 0.00 0.00 0.00 95 983.1
20260901012552 21 148 1.6 3.2 0.00 0.00 0.00 95 983.1
20260901011531 21 166 3.2 6.4 0.00 0.00 0.00 95 983.1
20260901011031 21 153 3.2 4.8 0.00 0.00 0.00 95 983.2
20260901010531 21 147 3.2 4.8 0.00 0.00 0.00 95 983.2
20260901010031 21 279 1.6 4.8 0.00 0.00 0.00 95 983.0
20260901005530 21 145 3.2 6.4 0.00 0.00 0.00 95 983.2
20260901005030 21 173 4.8 9.7 0.00 0.00 0.00 95 983.2
20260901004530 21 163 4.8 6.4 0.00 0.00 0.00 95 983.2
20260901002946 22 157 3.2 4.8 0.00 0.00 0.00 95 983.3
20260901002446 22 237 3.2 6.4 0.00 0.00 0.00 95 983.3
20260901001946 22 275 1.6 4.8 0.00 0.00 0.00 95 983.4
20260901001446 22 155 1.6 4.8 0.00 0.00 0.00 95 983.4
20260901000945 22 130 1.6 3.2 0.00 0.00 0.00 95 983.4
20260901000444 22 255 1.6 4.8 0.00 0.00 0.00 95 983.4
20260831235944 22 218 1.6 3.2 0.00 0.00 0.00 95 983.4
20260831235444 22 166 1.6 4.8 0.00 0.00 0.00 95 983.5
20260831234944 22 199 1.6 1.6 0.00 0.00 0.00 95 983.5
20260831233922 22 211 3.2 4.8 0.00 0.00 0.00 95 983.6
20260831233422 22 189 1.6 3.2 0.00 0.00 0.00 95 983.6
20260831232922 22 124 1.6 3.2 0.00 0.00 0.00 95 983.5
20260831232422 22 163 1.6 3.2 0.00 0.00 0.00 95 983.6
20260831231921 23 213 1.6 3.2 0.00 0.00 0.00 95 983.6
20260831231421 23 197 1.6 4.8 0.00 0.00 0.00 95 983.6
20260831230921 23 172 3.2 4.8 0.00 0.00 0.00 94 983.5
20260831230420 23 173 1.6 4.8 0.00 0.00 0.00 95 983.6
20260831225920 23 227 1.6 3.2 0.00 0.00 0.00 94 983.6
20260831224859 23 178 3.2 4.8 0.00 0.00 0.00 94 983.5
20260831224359 23 207 1.6 3.2 0.00 0.00 0.00 94 983.5
20260831223337 23 172 1.6 3.2 0.00 0.00 0.00 94 983.6
20260831222836 23 194 3.2 4.8 0.00 0.00 0.00 94 983.8
20260831222336 23 201 1.6 3.2 0.00 0.00 0.00 93 983.8
20260831221836 23 0 0.0 0.0 0.00 0.00 0.00 93 983.9
20260831220814 23 233 3.2 6.4 0.00 0.00 0.00 93 983.8
20260831220314 23 0 0.0 0.0 0.00 0.00 0.00 93 983.4
20260831215814 23 171 3.2 4.8 0.00 0.00 0.00 92 983.4
20260831215314 23 167 3.2 4.8 0.00 0.00 0.00 93 983.3
20260831214813 23 184 3.2 6.4 0.00 0.00 0.00 93 983.2
20260831214313 23 154 3.2 6.4 0.00 0.00 0.00 92 983.5
20260831213812 24 260 3.2 6.4 0.00 0.00 0.00 91 983.6
20260831213312 24 268 3.2 6.4 0.00 0.00 0.00 90 983.6
20260831212250 23 119 3.2 4.8 0.00 0.00 0.00 93 983.5
20260831211750 23 182 4.8 6.4 0.00 0.00 0.00 94 983.5
20260831210729 23 155 3.2 11.3 0.00 0.00 0.00 96 983.8
20260831210229 22 165 1.6 3.2 0.00 0.00 0.00 96 983.9
20260831205728 22 0 0.0 0.0 0.00 0.00 0.00 95 983.9
20260831205228 22 164 3.2 4.8 0.00 0.00 0.00 95 983.7
20260831204728 22 154 3.2 3.2 0.00 0.00 0.00 95 984.0
20260831204228 22 151 0.0 1.6 0.00 0.00 0.00 95 984.1
20260831203205 22 0 0.0 0.0 0.00 0.00 0.00 95 984.1
20260831202704 22 77 1.6 1.6 0.00 0.00 0.00 95 984.1
20260831202204 22 112 1.6 3.2 0.00 0.00 0.00 95 984.0
20260831201704 22 139 1.6 1.6 0.00 0.00 0.00 95 984.1
20260831201203 22 197 0.0 1.6 0.00 0.00 0.00 95 984.0
20260831200702 22 236 1.6 3.2 0.00 0.00 0.00 95 984.0
20260831200202 22 232 3.2 4.8 0.00 0.00 0.00 95 984.1
20260831195701 22 227 3.2 8.0 0.00 0.00 0.00 95 984.4
20260831195201 22 258 3.2 4.8 0.00 0.00 0.00 95 984.5
20260831194701 22 262 6.4 8.0 0.00 0.00 0.00 95 984.3
20260831194201 22 256 4.8 6.4 0.00 0.00 0.00 95 984.2
20260831193700 22 236 3.2 4.8 0.00 0.00 0.00 95 984.1
20260831193200 22 277 3.2 3.2 0.00 0.00 0.00 95 984.2
20260831192700 22 235 1.6 3.2 0.00 0.00 0.00 95 984.0
20260831192159 22 164 1.6 1.6 0.00 0.00 0.00 95 984.2
20260831191659 22 198 1.6 3.2 0.00 0.00 0.00 95 984.4
20260831191158 22 213 3.2 6.4 0.00 0.00 0.00 95 984.6
20260831190658 22 204 1.6 1.6 0.00 0.00 0.00 95 984.8
20260831190157 22 281 3.2 6.4 0.00 0.00 0.00 95 985.0
20260831185657 22 234 4.8 6.4 0.00 0.00 0.00 94 985.0
20260831185157 22 307 3.2 6.4 0.00 0.00 0.00 94 985.0
20260831184656 22 337 3.2 6.4 0.00 0.00 0.00 95 984.9
20260831184156 22 43 1.6 3.2 0.00 0.00 0.00 95 984.9
20260831183656 22 343 4.8 8.0 0.00 0.00 0.00 95 984.9
20260831183156 22 341 6.4 8.0 0.00 0.00 0.00 95 985.0
20260831182656 22 332 3.2 4.8 0.00 0.00 0.00 95 984.9
20260831182155 22 314 1.6 3.2 0.00 0.00 0.00 95 984.9
20260831181655 22 60 3.2 3.2 0.00 0.00 0.00 95 984.9
20260831181155 22 0 0.0 0.0 0.00 0.00 0.00 95 984.9
20260831180655 22 0 0.0 0.0 0.00 0.00 0.00 96 984.9
20260831180154 22 0 0.0 0.0 0.00 0.00 0.00 96 984.9
20260831175132 22 357 1.6 3.2 0.00 0.00 0.00 95 985.1
20260831174632 22 0 0.0 0.0 0.00 0.00 0.00 95 985.1
20260831174132 22 339 3.2 4.8 0.00 0.00 0.00 95 985.0
20260831173631 22 0 0.0 0.0 0.00 0.00 0.00 96 985.1
20260831173131 22 0 0.0 0.0 0.00 0.00 0.00 96 985.1
20260831172110 22 0 0.0 0.0 0.00 0.00 0.00 95 985.3
20260831171609 22 0 0.0 0.0 0.00 0.00 0.00 95 985.4
20260831171109 22 0 0.0 0.0 0.00 0.00 0.00 95 985.5
20260831170608 22 239 1.6 3.2 0.00 0.00 0.00 95 985.7
20260831170107 22 325 1.6 6.4 0.00 0.00 0.00 95 985.9
20260831165607 22 318 4.8 8.0 0.00 0.00 0.00 95 986.0
20260831165107 22 273 1.6 3.2 0.00 0.00 0.00 95 986.0
20260831164607 22 328 4.8 8.0 0.00 0.00 0.00 95 986.0
20260831164106 22 326 4.8 8.0 0.00 0.00 0.00 95 986.0
20260831163606 22 322 3.2 8.0 0.00 0.00 0.00 95 986.0
20260831163106 22 320 6.4 12.9 0.00 0.00 0.00 95 985.9
20260831162606 22 314 1.6 4.8 0.00 0.00 0.00 95 985.8
20260831162105 22 283 3.2 4.8 0.00 0.00 0.00 95 985.9
20260831161605 22 328 4.8 9.7 0.00 0.00 0.00 95 985.8
20260831161105 23 316 3.2 6.4 0.00 0.00 0.00 95 985.7
20260831160605 23 253 3.2 4.8 0.00 0.00 0.00 94 985.6
20260831155543 23 270 3.2 4.8 0.00 0.00 0.00 93 985.5
20260831155043 23 259 4.8 6.4 0.00 0.00 0.00 92 985.4
20260831154542 23 272 3.2 4.8 0.00 0.00 0.00 92 985.3
20260831154041 23 263 4.8 6.4 0.00 0.00 0.00 91 985.2
20260831153541 23 277 6.4 9.7 0.00 0.00 0.00 91 985.2
20260831151437 23 302 6.4 9.7 0.00 0.00 0.00 92 985.1
20260831150937 23 230 3.2 4.8 0.00 0.00 0.00 94 985.0
20260831150436 23 302 3.2 4.8 0.00 0.00 0.00 93 985.0
20260831145935 23 213 1.6 3.2 0.00 0.00 0.00 94 985.0
20260831145434 23 226 3.2 8.0 0.00 0.00 0.00 95 985.1
20260831144413 22 243 4.8 6.4 0.00 0.00 0.00 95 985.1
20260831143913 22 238 1.6 6.4 0.00 0.00 0.00 95 985.1
20260831143413 22 241 4.8 6.4 0.00 0.00 0.00 95 984.9
20260831142912 22 235 4.8 6.4 0.00 0.00 0.00 95 984.9
20260831141850 22 239 3.2 8.0 0.00 0.00 0.00 96 984.8
20260831141350 21 249 3.2 4.8 0.00 0.00 0.00 96 984.8
20260831140850 21 239 4.8 4.8 0.00 0.00 0.00 96 984.9
20260831135829 21 246 3.2 4.8 0.00 0.00 0.00 97 984.8
20260831135328 21 173 4.8 6.4 0.00 0.00 0.00 97 984.8
20260831134828 21 177 3.2 4.8 0.00 0.00 0.00 99 984.8
20260831134327 21 0 0.0 0.0 0.00 0.00 0.00 98 984.6
20260831133827 21 0 0.0 0.0 0.00 0.00 0.00 98 984.9
20260831133327 21 0 0.0 0.0 0.00 0.00 0.00 98 984.8
20260831132307 20 0 0.0 0.0 0.00 0.00 0.00 98 984.8
20260831131805 20 142 1.6 1.6 0.00 0.00 0.00 98 984.8
20260831130744 20 0 0.0 0.0 0.00 0.00 0.00 98 984.9
20260831125722 20 61 1.6 1.6 0.00 0.00 0.00 98 984.7
20260831125222 20 116 3.2 3.2 0.00 0.00 0.00 98 984.5
20260831124722 20 0 0.0 0.0 0.00 0.00 0.00 98 984.5
20260831124221 20 0 0.0 0.0 0.00 0.00 0.00 98 984.3
20260831123721 20 131 3.2 4.8 0.00 0.00 0.00 98 984.1
20260831123221 20 137 1.6 1.6 0.00 0.00 0.00 98 984.3
20260831122721 20 172 3.2 3.2 0.00 0.00 0.00 98 984.4
20260831121659 20 154 1.6 1.6 0.00 0.00 0.00 98 984.7
20260831120638 20 0 0.0 0.0 0.00 0.00 0.00 98 985.0
20260831120138 20 0 0.0 0.0 0.00 0.00 0.00 98 985.0
20260831115637 20 151 1.6 1.6 0.00 0.00 0.00 98 985.0
20260831115137 20 197 1.6 3.2 0.00 0.00 0.00 98 985.1
20260831114637 20 163 1.6 3.2 0.00 0.00 0.00 98 985.2
20260831114137 20 0 0.0 0.0 0.00 0.00 0.00 98 985.3
20260831113636 20 324 4.8 4.8 0.00 0.00 0.00 98 985.3
20260831113136 20 231 1.6 3.2 0.00 0.00 0.00 98 985.4
20260831112636 20 228 1.6 3.2 0.00 0.00 0.00 98 985.3
20260831112136 20 0 0.0 0.0 0.00 0.00 0.00 98 985.3
20260831111635 20 267 1.6 1.6 0.00 0.00 0.00 98 985.3
20260831110613 20 287 1.6 3.2 0.00 0.00 0.00 98 985.1
20260831110113 20 252 1.6 3.2 0.00 0.00 0.00 98 984.9
20260831105613 19 257 3.2 4.8 0.00 0.00 0.00 98 985.0
20260831105112 19 243 1.6 3.2 0.00 0.00 0.00 98 985.0
20260831104612 19 258 1.6 3.2 0.00 0.00 0.00 98 985.0
20260831104112 19 272 3.2 3.2 0.00 0.00 0.00 98 985.0
20260831103612 19 242 1.6 3.2 0.00 0.00 0.00 98 985.0
20260831103112 19 0 0.0 0.0 0.00 0.00 0.00 98 984.9
20260831102611 19 0 0.0 0.0 0.00 0.00 0.00 98 984.9
20260831102110 19 0 0.0 0.0 0.00 0.00 0.00 98 984.8
20260831101049 19 0 0.0 0.0 0.00 0.00 0.00 98 984.8
20260831100549 19 0 0.0 0.0 0.00 0.00 0.00 97 984.8
20260831100049 19 0 0.0 0.0 0.00 0.00 0.00 98 984.8
20260831095548 19 167 1.6 3.2 0.00 0.00 0.00 97 984.9
20260831094525 19 138 0.0 1.6 0.00 0.00 0.00 97 984.9
20260831094025 19 129 3.2 4.8 0.00 0.00 0.00 97 984.8
20260831093004 19 156 3.2 3.2 0.00 0.00 0.00 97 984.8
20260831092503 19 170 1.6 3.2 0.00 0.00 0.00 97 984.9
20260831092002 19 137 1.6 1.6 0.00 0.00 0.00 97 984.9
20260831091502 19 133 1.6 1.6 0.00 0.00 0.00 97 984.9
20260831091000 19 126 1.6 3.2 0.00 0.00 0.00 97 985.0
20260831090500 19 151 0.0 1.6 0.00 0.00 0.00 97 984.9
20260831085439 19 166 1.6 3.2 0.00 0.00 0.00 97 984.9
20260831083856 19 0 0.0 0.0 0.00 0.00 0.00 97 985.0
20260831083356 19 156 1.6 3.2 0.00 0.00 0.00 97 985.0
20260831082856 19 131 1.6 1.6 0.00 0.00 0.00 97 985.0
20260831082356 19 162 1.6 1.6 0.00 0.00 0.00 97 985.0
20260831081855 19 146 3.2 3.2 0.00 0.00 0.00 97 985.0
20260831081355 19 118 1.6 3.2 0.00 0.00 0.00 97 985.0
20260831080855 19 124 1.6 1.6 0.00 0.00 0.00 97 985.0
20260831080355 18 0 0.0 0.0 0.00 0.00 0.00 97 985.0
20260831075854 18 149 1.6 3.2 0.00 0.00 0.00 96 984.9
20260831075354 18 131 1.6 3.2 0.00 0.00 0.00 96 984.9
20260831074853 18 157 3.2 3.2 0.00 0.00 0.00 96 984.9
20260831074353 18 140 3.2 4.8 0.00 0.00 0.00 96 985.0
20260831073853 18 150 1.6 3.2 0.00 0.00 0.00 96 985.0
20260831073353 18 172 1.6 4.8 0.00 0.00 0.00 96 985.0
20260831072852 18 157 3.2 3.2 0.00 0.00 0.00 96 985.1
20260831071831 18 245 1.6 3.2 0.00 0.00 0.00 96 985.3
20260831071331 18 150 1.6 3.2 0.00 0.00 0.00 96 985.2
20260831070831 18 168 1.6 3.2 0.00 0.00 0.00 96 985.2
20260831065809 18 166 3.2 4.8 0.00 0.00 0.00 96 985.3
20260831064748 18 0 0.0 0.0 0.00 0.00 0.00 96 985.4
20260831064247 18 318 0.0 1.6 0.00 0.00 0.00 96 985.5
20260831063747 18 156 3.2 4.8 0.00 0.00 0.00 96 985.3
20260831063247 18 157 3.2 4.8 0.00 0.00 0.00 96 985.4
20260831062747 18 139 1.6 1.6 0.00 0.00 0.00 96 985.5
20260831062247 18 130 1.6 3.2 0.00 0.00 0.00 96 985.5
20260831061746 18 147 1.6 1.6 0.00 0.00 0.00 96 985.5
20260831060725 18 134 1.6 3.2 0.00 0.00 0.00 96 985.6
20260831060225 18 154 1.6 3.2 0.00 0.00 0.00 96 985.6